Regional Weather Roundup
Issued by NWS

Home | Current Version | Previous Version | Text Only | Print | Product List | Glossary Off
Versions: 1 2 3 4 5 6 7 8 9 10 11 12 13 14 15 16 17 18 19 20 21 22 23 24 25 26 27 28 29 30 31 32 33 34 35 36 37 38 39 40 41 42 43 44 45 46 47 48 49 50

000
ASUS45 KABQ 291901
RWRNM
WEATHER ROUNDUP FOR NEW MEXICO
NATIONAL WEATHER SERVICE ALBUQUERQUE NM
100 PM MDT FRI AUG 29 2014

NOTE: "FAIR" MEANS FEW OR NO CLOUDS BELOW 12,000 FEET AGL WITH NO
       SIGNIFICANT WEATHER OR OBSTRUCTIONS TO VISION.

      THIS PRODUCT IS RELEASED AS TWO VERSIONS.  ONE VERSION NEAR
      THE TOP OF THE HOUR CONTAINING PRELIMINARY DATA FROM ALBUQUERQUE
      AND OTHER STATIONS.  A FINAL VERSION WITH ADDITIONAL DATA IS
      ISSUED ABOUT 10 MINUTES AFTER THE HOUR.

NMZ501-503-504-510>518-292000-
NORTHWEST PLATEAU/NORTHCENTRAL MOUNTAINS

CITY           SKY/WX    TMP DP  RH WIND       PRES   REMARKS
FARMINGTON     SUNNY     78  35  21 VRB5      30.16F
LOS ALAMOS     SUNNY     70  40  33 E6        30.29S
SANTA FE       SUNNY     75  40  28 S8        30.22F
ANGEL FIRE     FAIR      67  36  32 W7        30.34F

$$
NMZ402-403-502-505>509-292000-
WESTCENTRAL MOUNTAINS/SOUTHWEST MOUNTAINS

CITY           SKY/WX    TMP DP  RH WIND       PRES   REMARKS
GALLUP         SUNNY     79  34  19 VRB5      30.23F
SILVER CITY    SUNNY     84  39  20 NW3       30.16S

$$
NMZ407-409-411-412-292000-
SOUTHERN DESERTS

CITY           SKY/WX    TMP DP  RH WIND       PRES   REMARKS
LORDSBURG      FAIR      88  41  19 CALM      30.06F
DEMING         SUNNY     91  42  18 E10       30.06F
LAS CRUCES     SUNNY     88  44  21 SE7       30.08F
HOLLOMAN AFB   SUNNY     91  40  17 VRB2      30.03F
ALAMOGORDO     SUNNY     90  37  15 N5        30.06F
T OR C         SUNNY     84  41  21 VRB3      30.10F

$$
NMZ519>523-292000-
CENTRAL VALLEYS/CENTRAL HIGHLANDS

CITY           SKY/WX    TMP DP  RH WIND       PRES   REMARKS
ALBUQUERQUE    MOSUNNY   79  43  27 S6        30.16F
DOUBLE EAGLE   MOSUNNY   79  43  27 NW5       30.20F
CLINES CORNERS MOSUNNY   74  43  32 SW7       30.25F
BELEN          FAIR      80  43  26 CALM      30.16F
SOCORRO        FAIR      82  44  26 N5        30.13F

$$
NMZ524>526-539-540-292000-
SOUTHCENTRAL MOUNTAINS

CITY           SKY/WX    TMP DP  RH WIND       PRES   REMARKS
RUIDOSO        NOT AVBL

$$
NMZ527>531-292000-
NORTHEAST HIGHLANDS/NORTHEAST PLAINS

CITY           SKY/WX    TMP DP  RH WIND       PRES   REMARKS
LAS VEGAS      PTSUNNY   73  40  30 SW6       30.25F
RATON          SUNNY     79  33  19 N9G18     30.18F
CLAYTON        SUNNY     83  40  21 N8        30.09F

$$
NMZ532>537-292000-
EASTCENTRAL PLAINS

CITY           SKY/WX    TMP DP  RH WIND       PRES   REMARKS
TUCUMCARI      SUNNY     87  37  17 MISG      30.06F
CANNON AFB     SUNNY     85  43  22 VRB3      30.08F
CLOVIS AIRPORT   N/A     86  43  22 NW13      30.09F

$$
NMZ028-029-538-292000-
SOUTHEAST PLAINS

CITY           SKY/WX    TMP DP  RH WIND       PRES   REMARKS
ROSWELL        SUNNY     85  53  33 CALM      30.05F
CARLSBAD       SUNNY     88  58  36 N13G21    30.01F
HOBBS          SUNNY     82  59  44 N5        30.05F


$$


USA.gov is the U.S. government's official web portal to all federal, state and local government web resources and services.